Weather History for PASX - March, 2013

Change the Weather History Date:

Thursday, March 28, 2013

  Actual Average Record
Temperature  
Mean Temperature 22 °F -  
Max Temperature 32 °F 35 °F 48 °F (2015)
Min Temperature 15 °F 19 °F -4 °F (2007)
Degree Days  
Heating Degree Days 42    
Moisture  
Dew Point 15 °F    
Average Humidity 76    
Maximum Humidity 86    
Minimum Humidity 64    
Precipitation  
Precipitation 0.00 in - - ()
Sea Level Pressure  
Sea Level Pressure 30.02 in    
Wind  
Wind Speed 8 mph (NE)    
Max Wind Speed 13 mph    
Max Gust Speed 17 mph    
Visibility 9 miles    
Events      
Averages and records for this station are not official NWS values.
T = Trace of Precipitation, MM = Missing Value Source: NWS Daily Summary

Daily Weather History Graph

Daily Weather History Graph

Search for Another Location

Airport or City:

Trip Planner

Search our weather history database for the weather conditions in past years. The results will help you decide how hot, cold, wet, or windy it might be!

Date:

Astronomy

Mar. 28, 2013 Rise Set
Actual Time 7:39 AM AKDT 8:40 PM AKDT
Civil Twilight 6:56 AM AKDT 9:23 PM AKDT
Nautical Twilight 6:03 AM AKDT 10:16 PM AKDT
Astronomical Twilight 5:02 AM AKDT 11:18 PM AKDT
Moon 11:28 PM AKDT (3/28) 7:41 AM AKDT (3/28)
Length of Visible Light 14h 26m
Length of Day
13h 00m
Full, 97% of the Moon is Illuminated
Mar 28
Full
Apr 2
Last Quarter
Apr 10
New
Apr 18
First Quarter
Apr 25
Full

Hourly Weather History & Observations

Time (AKDT) Temp. Windchill Dew Point Humidity Pressure Visibility Wind Dir Wind Speed Gust Speed Precip Events Conditions
12:16 AM 15.8 °F 6.1 °F 8.6 °F 73% 30.19 in 5.0 mi NE 6.9 mph - N/A   Overcast
12:36 AM 15.8 °F 2.7 °F 8.6 °F 73% 30.18 in 7.0 mi NE 11.5 mph - N/A   Overcast
12:56 AM 15.8 °F 6.1 °F 8.6 °F 73% 30.18 in 7.0 mi NE 6.9 mph - N/A   Overcast
1:16 AM 15.8 °F 8.6 °F 8.6 °F 73% 30.17 in 7.0 mi NE 4.6 mph - N/A   Overcast
1:36 AM 15.8 °F 7.2 °F 10.4 °F 79% 30.17 in 8.0 mi NE 5.8 mph - N/A   Overcast
1:56 AM 15.8 °F 5.1 °F 8.6 °F 73% 30.17 in 6.0 mi NE 8.1 mph - N/A   Overcast
2:16 AM 15.8 °F 3.4 °F 8.6 °F 73% 30.16 in 8.0 mi ENE 10.4 mph - N/A   Overcast
2:36 AM 15.8 °F 7.2 °F 8.6 °F 73% 30.16 in 5.0 mi NNE 5.8 mph - N/A   Overcast
2:56 AM 15.8 °F 6.1 °F 8.6 °F 73% 30.16 in 6.0 mi NE 6.9 mph - N/A   Overcast
3:16 AM 15.8 °F 6.1 °F 8.6 °F 73% 30.16 in 8.0 mi NE 6.9 mph - N/A   Overcast
3:36 AM 15.8 °F 6.1 °F 8.6 °F 73% 30.16 in 10.0 mi NE 6.9 mph - N/A   Overcast
3:56 AM 15.8 °F 5.1 °F 10.4 °F 79% 30.15 in 10.0 mi NE 8.1 mph - N/A   Overcast
4:16 AM 15.8 °F 7.2 °F 10.4 °F 79% 30.15 in 7.0 mi NE 5.8 mph - N/A   Mostly Cloudy
4:36 AM 15.8 °F 5.1 °F 10.4 °F 79% 30.14 in 3.0 mi ENE 8.1 mph - N/A   Overcast
4:56 AM 15.8 °F 6.1 °F 10.4 °F 79% 30.14 in 5.0 mi ENE 6.9 mph - N/A   Overcast
5:16 AM 15.8 °F 3.4 °F 10.4 °F 79% 30.14 in 8.0 mi ENE 10.4 mph - N/A   Overcast
5:36 AM 15.8 °F 4.2 °F 10.4 °F 79% 30.13 in 10.0 mi NE 9.2 mph - N/A   Overcast
5:56 AM 15.8 °F 4.2 °F 10.4 °F 79% 30.13 in 10.0 mi NE 9.2 mph - N/A   Overcast
6:16 AM 15.8 °F 5.1 °F 10.4 °F 79% 30.12 in 10.0 mi NE 8.1 mph - N/A   Overcast
6:36 AM 15.8 °F 4.2 °F 10.4 °F 79% 30.12 in 10.0 mi NE 9.2 mph - N/A   Overcast
6:56 AM 15.8 °F 7.2 °F 10.4 °F 79% 30.11 in 10.0 mi ENE 5.8 mph - N/A   Overcast
7:16 AM 15.8 °F 6.1 °F 10.4 °F 79% 30.11 in 10.0 mi NE 6.9 mph - N/A   Overcast
7:36 AM 15.8 °F 6.1 °F 10.4 °F 79% 30.10 in 10.0 mi NE 6.9 mph - N/A   Overcast
7:56 AM 15.8 °F 5.1 °F 10.4 °F 79% 30.09 in 10.0 mi NE 8.1 mph - N/A   Overcast
8:16 AM 15.8 °F 5.1 °F 10.4 °F 79% 30.09 in 10.0 mi NE 8.1 mph - N/A   Overcast
8:36 AM 15.8 °F 4.2 °F 8.6 °F 73% 30.09 in 10.0 mi NE 9.2 mph - N/A   Overcast
8:56 AM 15.8 °F 5.1 °F 10.4 °F 79% 30.08 in 10.0 mi NE 8.1 mph - N/A   Overcast
9:16 AM 15.8 °F 3.4 °F 12.2 °F 86% 30.08 in 10.0 mi NE 10.4 mph - N/A   Overcast
9:36 AM 15.8 °F 4.2 °F 10.4 °F 79% 30.08 in 10.0 mi NE 9.2 mph - N/A   Overcast
9:56 AM 17.6 °F 5.7 °F 10.4 °F 73% 30.08 in 10.0 mi NE 10.4 mph - N/A   Overcast
10:16 AM 17.6 °F 7.3 °F 12.2 °F 79% 30.07 in 10.0 mi NE 8.1 mph - N/A   Overcast
10:36 AM 17.6 °F 4.3 °F 12.2 °F 79% 30.07 in 10.0 mi NE 12.7 mph 16.1 mph N/A   Overcast
10:56 AM 17.6 °F 5.7 °F 12.2 °F 79% 30.07 in 10.0 mi NE 10.4 mph - N/A   Overcast
11:16 AM 19.4 °F 6.6 °F 12.2 °F 74% 30.06 in 10.0 mi NE 12.7 mph 16.1 mph N/A   Overcast
11:36 AM 19.4 °F 7.9 °F 12.2 °F 74% 30.06 in 10.0 mi NE 10.4 mph - N/A   Overcast
11:56 AM 21.2 °F 10.9 °F 14.0 °F 74% 30.05 in 10.0 mi NNE 9.2 mph - N/A   Overcast
12:16 PM 21.2 °F 13.6 °F 15.8 °F 80% 30.05 in 10.0 mi NNE 5.8 mph - N/A   Overcast
12:36 PM 21.2 °F 10.9 °F 15.8 °F 80% 30.04 in 10.0 mi North 9.2 mph - N/A   Overcast
12:56 PM 21.2 °F 11.7 °F 15.8 °F 80% 30.03 in 10.0 mi NE 8.1 mph - N/A   Overcast
1:16 PM 21.2 °F 13.6 °F 15.8 °F 80% 30.02 in 10.0 mi NNE 5.8 mph - N/A   Overcast
1:36 PM 23.0 °F 12.4 °F 15.8 °F 74% 30.01 in 10.0 mi NE 10.4 mph - N/A   Overcast
1:56 PM 23.0 °F 12.4 °F 15.8 °F 74% 30.00 in 10.0 mi NE 10.4 mph - N/A   Overcast
2:16 PM 23.0 °F 13.9 °F 15.8 °F 74% 30.00 in 10.0 mi NE 8.1 mph - N/A   Overcast
2:36 PM 23.0 °F 13.9 °F 15.8 °F 74% 29.99 in 10.0 mi NNE 8.1 mph - N/A   Overcast
2:56 PM 23.0 °F 14.7 °F 15.8 °F 74% 29.98 in 10.0 mi NNE 6.9 mph - N/A   Overcast
3:16 PM 24.8 °F 16.1 °F 17.6 °F 74% 29.98 in 10.0 mi NE 8.1 mph 17.3 mph N/A   Overcast
3:36 PM 24.8 °F 16.1 °F 17.6 °F 74% 29.97 in 10.0 mi North 8.1 mph - N/A   Overcast
3:56 PM 24.8 °F 16.9 °F 17.6 °F 74% 29.96 in 10.0 mi NNE 6.9 mph - N/A   Overcast
4:16 PM 24.8 °F 15.3 °F 17.6 °F 74% 29.96 in 10.0 mi NNE 9.2 mph - N/A   Overcast
4:36 PM 24.8 °F 14.0 °F 19.4 °F 80% 29.95 in 10.0 mi North 11.5 mph - N/A   Overcast
4:56 PM 26.6 °F 19.1 °F 19.4 °F 74% 29.94 in 10.0 mi NNE 6.9 mph - N/A   Overcast
5:16 PM 26.6 °F 20.0 °F 19.4 °F 74% 29.93 in 10.0 mi North 5.8 mph - N/A   Overcast
5:36 PM 28.4 °F 19.7 °F 19.4 °F 69% 29.93 in 10.0 mi NNE 9.2 mph - N/A   Overcast
5:56 PM 28.4 °F 22.2 °F 19.4 °F 69% 29.92 in 10.0 mi NNE 5.8 mph - N/A   Overcast
6:16 PM 28.4 °F 20.4 °F 21.2 °F 74% 29.91 in 10.0 mi North 8.1 mph - N/A   Overcast
6:36 PM 26.6 °F 21.2 °F 21.2 °F 80% 29.91 in 10.0 mi NNE 4.6 mph - N/A   Overcast
6:56 PM 26.6 °F 20.0 °F 21.2 °F 80% 29.90 in 10.0 mi NNE 5.8 mph - N/A   Overcast
7:16 PM 28.4 °F 20.4 °F 21.2 °F 74% 29.89 in 10.0 mi NE 8.1 mph - N/A   Overcast
7:36 PM 28.4 °F 21.2 °F 21.2 °F 74% 29.89 in 10.0 mi NNE 6.9 mph - N/A   Overcast
7:56 PM 28.4 °F 20.4 °F 21.2 °F 74% 29.88 in 10.0 mi NNE 8.1 mph - N/A   Overcast
8:16 PM 28.4 °F 22.2 °F 21.2 °F 74% 29.87 in 10.0 mi NE 5.8 mph - N/A   Overcast
8:36 PM 28.4 °F 22.2 °F 21.2 °F 74% 29.88 in 10.0 mi NNE 5.8 mph - N/A   Overcast
8:56 PM 28.4 °F 23.3 °F 21.2 °F 74% 29.88 in 10.0 mi NNE 4.6 mph - N/A   Overcast
9:16 PM 28.4 °F 23.3 °F 21.2 °F 74% 29.88 in 10.0 mi North 4.6 mph - N/A   Overcast
9:36 PM 28.4 °F 24.6 °F 21.2 °F 74% 29.88 in 10.0 mi NNE 3.5 mph - N/A   Overcast
9:56 PM 28.4 °F 24.6 °F 23.0 °F 80% 29.87 in 10.0 mi ENE 3.5 mph - N/A   Overcast
10:16 PM 28.4 °F 23.3 °F 23.0 °F 80% 29.87 in 10.0 mi North 4.6 mph - N/A   Overcast
10:36 PM 28.4 °F 23.3 °F 21.2 °F 74% 29.86 in 10.0 mi North 4.6 mph - N/A   Overcast
10:56 PM 28.4 °F - 21.2 °F 74% 29.84 in 10.0 mi Calm Calm - N/A   Overcast
11:16 PM 28.4 °F 24.6 °F 21.2 °F 74% 29.84 in 10.0 mi NE 3.5 mph - N/A   Overcast
11:36 PM 30.2 °F 21.3 °F 21.2 °F 69% 29.84 in 10.0 mi ENE 10.4 mph - N/A   Overcast
11:56 PM 32.0 °F 24.8 °F 21.2 °F 64% 29.84 in 10.0 mi NE 8.1 mph - N/A   Overcast